Weather History for KTOI - October, 2012

Change the Weather History Date:

Friday, October 5, 2012

  Actual Average Record
Temperature  
Mean Temperature 70 °F 69 °F  
Max Temperature 84 °F 81 °F 91 °F (2002)
Min Temperature 56 °F 57 °F 38 °F (2010)
Degree Days  
Heating Degree Days 0 1  
Month to date heating degree days 1 5  
Since 1 July heating degree days 1 9  
Cooling Degree Days 5 5  
Month to date cooling degree days 17 28  
Year to date cooling degree days 2047 1976  
Growing Degree Days 18 (Base 50)    
Moisture  
Dew Point 61 °F    
Average Humidity 76    
Maximum Humidity 100    
Minimum Humidity 51    
Precipitation  
Precipitation 0.00 in 0.11 in 0.11 in (2001)
Month to date precipitation 1.50 0.51  
Year to date precipitation 49.65 42.42  
Snow  
Snow 0.00 in - - ()
Month to date snowfall 0.0  
Since 1 July snowfall 0.0  
Since 1 September snowfall 0.0  
Snow Depth 0.00 in    
Sea Level Pressure  
Sea Level Pressure 30.13 in    
Wind  
Wind Speed 2 mph (ENE)    
Max Wind Speed 8 mph    
Max Gust Speed 12 mph    
Visibility 6 miles    
Events Fog    
T = Trace of Precipitation, MM = Missing Value Source: NWS Daily Summary

Daily Weather History Graph

Daily Weather History Graph

Search for Another Location

Airport or City:

Trip Planner

Search our weather history database for the weather conditions in past years. The results will help you decide how hot, cold, wet, or windy it might be!

Date:

Astronomy

Oct. 05, 2012 Rise Set
Actual Time 6:40 AM CDT 6:23 PM CDT
Civil Twilight 6:16 AM CDT 6:47 PM CDT
Nautical Twilight 5:48 AM CDT 7:15 PM CDT
Astronomical Twilight 5:19 AM CDT 7:44 PM CDT
Moon 10:02 PM CDT (10/5) 11:31 AM CDT (10/5)
Length of Visible Light 12h 31m
Length of Day
11h 42m
Waning Gibbous, 74% of the Moon is Illuminated
Oct 5
Waning Gibbous
Oct 8
Last Quarter
Oct 15
New
Oct 21
First Quarter
Oct 29
Full

Hourly Weather History & Observations

Time (CDT) Temp. Heat Index Dew Point Humidity Pressure Visibility Wind Dir Wind Speed Gust Speed Precip Events Conditions
12:53 AM 59.0 °F - 57.0 °F 93% 30.17 in 5.0 mi Calm Calm - N/A   Clear
1:53 AM 59.0 °F - 57.0 °F 93% 30.16 in 9.0 mi Calm Calm - N/A   Clear
2:53 AM 55.9 °F - 55.0 °F 97% 30.16 in 4.0 mi Calm Calm - N/A   Clear
3:53 AM 57.0 °F - 55.9 °F 96% 30.15 in 9.0 mi North 3.5 mph - N/A   Clear
4:45 AM 57.2 °F - 55.4 °F 94% 30.17 in 8.0 mi Calm Calm - N/A   Partly Cloudy
4:53 AM 57.0 °F - 55.9 °F 96% 30.16 in 8.0 mi Calm Calm - N/A   Scattered Clouds
5:12 AM 57.2 °F - 55.4 °F 94% 30.18 in 8.0 mi Calm Calm - N/A   Mostly Cloudy
5:49 AM 59.0 °F - 57.2 °F 94% 30.17 in 1.5 mi Calm Calm - N/A   Overcast
5:53 AM 59.0 °F - 57.9 °F 96% 30.16 in 1.5 mi Calm Calm - N/A   Overcast
6:11 AM 59.0 °F - 57.2 °F 94% 30.17 in 2.0 mi Calm Calm - N/A   Overcast
6:24 AM 59.0 °F - 57.2 °F 94% 30.17 in 1.8 mi Calm Calm - N/A   Overcast
6:27 AM 59.0 °F - 57.2 °F 94% 30.17 in 1.0 mi Calm Calm - N/A   Overcast
6:29 AM 59.0 °F - 57.2 °F 94% 30.17 in 0.5 mi Calm Calm - N/A Fog Fog
6:42 AM 59.0 °F - 57.2 °F 94% 30.18 in 1.0 mi Calm Calm - N/A   Overcast
6:44 AM 59.0 °F - 57.2 °F 94% 30.17 in 1.5 mi Calm Calm - N/A   Overcast
6:48 AM 59.0 °F - 57.2 °F 94% 30.18 in 1.0 mi Calm Calm - N/A   Overcast
6:51 AM 59.0 °F - 57.2 °F 94% 30.18 in 0.5 mi Calm Calm - N/A Fog Fog
6:53 AM 59.0 °F - 57.9 °F 96% 30.17 in 0.5 mi NE 3.5 mph - N/A Fog Fog
7:01 AM 59.0 °F - 57.2 °F 94% 30.18 in 0.2 mi NE 3.5 mph - N/A Fog Fog
7:53 AM 61.0 °F - 60.1 °F 97% 30.18 in 0.2 mi Calm Calm - N/A Fog Fog
8:53 AM 63.0 °F - 63.0 °F 100% 30.18 in 0.2 mi Variable 3.5 mph - N/A Fog Fog
9:33 AM 66.2 °F - 66.2 °F 100% 30.18 in 1.5 mi Calm Calm - N/A   Overcast
9:36 AM 68.0 °F - 66.2 °F 94% 30.18 in 2.5 mi Calm Calm - N/A   Mostly Cloudy
9:39 AM 68.0 °F - 66.2 °F 94% 30.18 in 4.0 mi Calm Calm - N/A   Scattered Clouds
9:53 AM 69.1 °F - 66.9 °F 93% 30.17 in 9.0 mi Calm Calm - N/A   Scattered Clouds
10:53 AM 79.0 °F - 66.0 °F 64% 30.15 in 10.0 mi Variable 4.6 mph - N/A   Clear
12:53 PM 81.0 °F 82.2 °F 63.0 °F 54% 30.11 in 10.0 mi ESE 4.6 mph - N/A   Mostly Cloudy
1:53 PM 82.9 °F 84.4 °F 64.0 °F 53% 30.08 in 10.0 mi Calm Calm - N/A   Scattered Clouds
2:53 PM 81.0 °F 82.7 °F 64.9 °F 58% 30.05 in 10.0 mi ESE 5.8 mph - N/A   Scattered Clouds
3:53 PM 82.9 °F 84.6 °F 64.9 °F 54% 30.02 in 10.0 mi East 4.6 mph - N/A   Clear
4:53 PM 82.0 °F 84.1 °F 66.0 °F 58% 30.01 in 10.0 mi ESE 3.5 mph - N/A   Clear
5:53 PM 80.1 °F 82.7 °F 68.0 °F 67% 30.01 in 10.0 mi Calm Calm - N/A   Clear
6:53 PM 73.0 °F - 70.0 °F 90% 30.02 in 10.0 mi Calm Calm - N/A   Partly Cloudy
7:53 PM 72.0 °F - 69.1 °F 91% 30.02 in 10.0 mi Calm Calm - N/A   Clear
8:53 PM 71.1 °F - 68.0 °F 90% 30.04 in 10.0 mi Calm Calm - N/A   Scattered Clouds
9:53 PM 72.0 °F - 68.0 °F 87% 30.04 in 10.0 mi Calm Calm - N/A   Partly Cloudy
10:53 PM 69.1 °F - 66.9 °F 93% 30.04 in 10.0 mi Calm Calm - N/A   Clear
11:53 PM 68.0 °F - 66.9 °F 96% 30.04 in 10.0 mi Calm Calm - N/A   Mostly Cloudy